Погода в Сосновом Боре

Россия / Иркутская область     52°39′28″N   104°30′14″E
темп.,
°C
ветер,
м/с
пор.,
м/с
влажн.,
%
обл.,
%
осадки,
мм/ч
давл.,
гПа
погр.,
м
24 мая, вт
вт2423:00+10ссв116121 0.0 102019
02:00+8в11655 0.0 102210
05:00+7всв11708 0.0 102410
08:00+12юв12555 0.0 1025252
11:00+18юв22333 0.0 10251784
14:00+21в12285 0.0 10231922
17:00+21с112711 0.0 10211637
20:00+18св123724 0.0 102111
25 мая, ср
ср2523:00+12ю22452 0.0 102312
02:00+10юв114719 0.0 102310
05:00+9в11512 0.0 102310
08:00+14в12440 0.0 1023225
11:00+20ююв22320 0.0 1020727
14:00+23вюв11230 0.0 10172055
17:00+24в22210 0.0 10141497
20:00+20в113070 0.0 101211
26 мая, чт
чт2623:00+14ююв2241100 0.0 101211
02:00+12в1147100 0.0 101010
05:00+10всв11495 0.0 100910
08:00+16всв00399 0.0 1008210
11:00+23з45299 0.0 10071045
14:00+24сз810295 0.0 10052376
17:00+22ссз9123579 0.0 10052066
20:00+18сз484538 0.0 1006272
27 мая, пт
пт2723:00+15с374783 0.0 1008197
02:00+11сз410625 0.0 1009228
05:00+9сз49760 0.0 1010226
08:00+12ссз456313 0.0 1010799
11:00+16ссз343944 0.0 10082191
14:00+19сз552591 0.0 10062964
17:00+19сз5523100 0.0 10042829
20:00+15ссз4836100 0.0 1004247
28 мая, сб
сб2823:00+12ссв51036100 0.0 1006399
02:00+8ссв3944100 0.0 1008268
05:00+5с2354100 0.0 101042
08:00+9сз46443 0.0 1012954
11:00+12сз9103282 0.0 10122568
14:00+14сз8926100 0.0 10113082
17:00+14ссз892699 0.0 10122820
20:00+12сз6103031 0.0 1013619